Wind_Speed
16 17 17 18 18 19 22 24 25 27 28 30 31 31 32 35 39 41 43 44 44 45 46 45 45 45 45 44 44 44 44 45 45 44 44 44 44 42 41 41 41 40 40 39
16 17 17 17 17 18 20 22 24 25 27 28 29 30 31 32 35 38 40 43 44 44 45 46 45 45 45 44 44 43 44 44 45 46 45 44 44 45 44 43 43 43 42 40
16 15 16 15 16 17 18 20 22 23 24 26 28 28 28 30 32 35 38 40 43 44 43 44 45 44 44 44 44 44 44 44 45 45 45 46 45 45 45 44 44 43 43 40
15 14 14 14 14 15 18 19 21 22 23 25 27 27 27 28 31 34 36 38 39 42 43 43 43 43 44 44 44 43 44 44 44 44 45 45 44 45 44 43 44 44 43 42
14 13 12 12 13 14 15 17 19 21 22 24 26 27 26 27 30 32 34 35 37 39 41 42 43 42 43 44 45 44 43 44 44 43 44 45 45 45 46 45 44 44 44 44
13 12 11 10 11 12 13 15 16 18 20 22 24 26 26 27 28 30 32 33 36 37 38 40 42 42 43 44 44 44 44 44 45 45 44 45 46 46 46 46 45 44 44 45
12 11 10 10 11 12 13 13 14 16 18 21 21 24 25 25 26 28 30 32 34 36 37 39 40 41 42 43 44 44 44 44 44 45 45 45 45 46 46 45 45 45 44 43
11 10 11 11 11 12 13 13 14 16 18 20 22 23 24 25 25 27 30 31 33 35 37 39 39 40 41 42 43 43 44 44 44 44 44 44 45 45 44 45 45 44 44 43
12 11 10 10 11 12 12 13 15 16 18 18 20 23 25 25 25 26 29 31 32 34 36 38 39 40 41 42 42 43 44 44 44 44 44 44 44 44 44 45 45 45 44 44
12 11 11 11 12 13 13 13 14 15 17 19 20 22 23 23 25 26 26 27 30 33 35 36 38 39 40 40 42 42 43 44 43 43 42 42 43 43 43 44 44 44 44 44
13 13 11 11 13 14 15 16 16 15 17 18 20 20 21 22 23 24 25 26 28 31 34 36 37 38 38 38 40 42 42 42 42 42 43 43 42 42 43 43 43 43 43 42
14 14 12 13 14 14 16 17 17 17 17 19 20 19 20 20 21 21 22 24 26 29 31 34 36 37 37 37 38 39 40 41 42 42 43 42 43 43 43 42 43 43 43 43
16 14 14 14 15 16 17 18 19 19 18 18 20 20 20 20 20 20 21 22 25 26 29 31 33 35 35 35 36 37 38 39 40 41 41 42 43 43 43 43 43 43 43 42
16 15 15 16 16 16 17 18 19 20 21 20 20 20 20 20 20 20 21 22 23 25 26 27 30 32 33 34 35 36 36 36 38 39 39 40 41 41 42 43 43 43 43 43
17 16 15 16 16 16 17 18 19 20 21 21 20 20 20 20 20 20 21 21 22 23 25 26 28 30 31 32 33 34 35 36 37 37 38 39 40 40 41 42 42 42 42 43
18 17 16 16 17 17 17 18 19 20 21 21 21 21 21 20 20 20 20 21 22 23 23 25 26 28 30 31 32 34 35 36 37 38 38 39 40 40 41 41 41 41 42 43
18 18 17 16 16 17 17 17 18 20 22 22 21 21 21 21 20 20 21 21 22 23 24 24 25 27 28 29 30 31 33 35 36 36 37 38 39 40 40 41 40 41 42 43
19 19 19 18 18 18 17 18 18 19 20 22 22 22 22 22 21 20 20 21 22 23 24 24 25 26 27 28 28 29 30 32 34 35 36 37 38 39 40 40 40 41 41 42
20 20 19 18 19 19 19 19 19 20 20 21 21 22 23 23 22 21 21 22 22 24 24 25 25 26 26 27 28 29 29 30 31 33 34 35 36 37 38 39 39 40 40 41
19 20 20 19 19 18 18 19 19 20 20 20 21 21 22 22 22 22 23 23 23 24 24 25 25 25 25 26 26 28 29 29 30 31 32 34 35 35 36 36 37 38 38 39
20 20 20 20 19 18 18 19 19 20 19 19 20 20 21 21 21 21 22 23 24 24 24 24 25 25 25 25 25 27 28 29 29 30 30 31 33 34 34 35 35 36 37 38
21 21 21 20 19 19 19 19 19 19 19 19 19 20 20 21 21 21 21 22 24 24 24 24 24 25 26 25 25 26 27 28 28 28 28 29 30 31 32 33 34 35 35 36
22 22 22 21 20 20 20 19 19 19 19 19 20 20 21 21 22 22 22 23 23 24 25 26 26 26 26 26 26 26 27 28 28 29 29 29 29 30 30 31 32 33 34 35
22 22 22 22 21 22 21 21 20 20 20 20 20 20 21 21 21 22 22 23 24 25 25 26 27 27 27 27 27 27 27 28 28 28 29 29 29 29 29 30 31 31 32 33
22 22 22 22 22 22 21 21 21 21 22 22 21 21 21 21 22 22 22 22 24 24 25 26 26 26 27 27 27 27 28 28 28 28 28 29 29 29 29 29 29 30 30 30
22 22 22 22 22 21 21 21 21 22 22 22 22 22 21 22 22 22 22 22 23 24 25 26 26 26 26 27 27 27 27 27 27 27 28 28 28 28 28 28 28 28 29 29
Wind_Direction
280 275 271 268 265 259 254 247 244 240 239 240 240 238 238 236 235 234 232 231 232 233 233 231 232 232 234 235 235 235 237 238 239 240 240 242 242 242 244 245 247 248 250 252
279 276 273 269 266 259 251 245 244 242 241 239 237 237 238 238 236 235 234 232 232 233 234 233 232 232 234 235 236 237 238 238 239 240 240 241 243 243 243 245 246 247 248 250
284 281 276 269 264 257 247 243 241 241 238 237 239 239 239 238 236 235 234 234 233 233 234 234 233 233 233 235 237 241 239 239 240 241 243 244 244 244 243 243 245 246 247 250
286 280 278 272 265 252 249 245 244 243 241 239 238 239 235 237 237 237 236 236 234 233 234 234 234 234 234 235 237 240 240 239 240 243 244 245 244 244 244 245 247 247 248 249
289 281 278 273 268 255 252 248 247 244 244 244 241 243 240 240 240 240 239 237 236 235 234 234 234 234 235 235 237 239 239 239 241 243 245 247 246 246 246 247 246 247 247 249
293 285 277 273 269 256 253 249 247 246 245 245 244 247 247 244 243 242 242 240 238 238 237 236 235 236 237 237 238 240 240 241 243 244 246 247 248 247 247 248 248 248 249 250
295 288 277 269 263 259 256 249 245 246 246 248 247 249 250 247 246 245 243 241 240 239 238 237 237 237 237 238 240 241 242 243 245 245 245 246 248 248 248 248 248 248 249 251
297 285 277 269 267 264 257 250 250 251 253 252 248 250 252 251 251 248 245 244 243 240 239 238 237 238 238 240 241 242 243 245 246 246 246 246 246 247 247 248 248 249 250 252
299 287 279 271 269 263 256 253 257 258 258 259 255 253 254 254 255 252 248 247 245 241 240 238 237 238 239 240 242 243 245 246 246 246 247 246 246 247 249 249 249 250 252 253
300 287 276 270 271 264 257 260 263 264 264 263 262 259 258 257 257 254 251 248 244 241 239 237 237 238 239 240 242 243 246 247 246 247 247 247 247 247 249 249 249 251 253 254
304 290 282 274 270 269 262 260 260 266 269 265 265 263 262 261 261 260 256 248 242 242 241 239 237 237 240 242 242 244 245 246 246 247 247 247 247 247 248 248 250 251 252 254
310 298 283 278 277 269 266 264 260 262 270 268 265 266 264 264 263 264 261 252 245 244 244 242 240 239 241 243 243 245 246 246 247 247 248 248 249 249 249 251 251 251 252 253
312 303 286 277 275 273 268 265 262 259 264 266 263 264 265 265 264 265 262 257 253 251 249 246 244 242 243 245 246 247 249 248 248 248 248 248 248 249 250 252 253 253 253 254
312 306 295 284 278 277 272 268 265 259 259 264 263 264 265 266 266 266 263 261 258 254 252 250 246 244 245 246 246 248 249 249 248 248 247 248 248 248 250 252 253 253 253 253
309 307 298 286 280 279 274 272 269 262 261 262 262 263 266 267 267 268 265 262 260 256 253 252 250 247 246 245 246 249 249 248 247 247 247 248 250 250 251 252 253 254 254 254
308 306 299 287 280 279 278 275 270 266 262 263 262 261 262 265 266 267 265 261 259 258 256 253 252 250 248 247 248 250 250 249 247 249 249 249 250 251 251 253 254 254 255 255
308 305 300 291 284 281 279 279 275 270 266 265 265 264 262 261 263 266 264 262 260 258 256 255 253 252 250 249 250 252 251 251 250 251 252 251 251 251 251 252 254 255 255 256
307 307 300 293 287 283 282 280 277 273 269 268 267 266 263 262 264 265 262 261 260 259 256 254 253 252 253 251 252 253 252 252 253 253 254 255 254 252 251 252 253 255 256 257
304 305 301 294 289 286 284 282 277 273 269 268 268 268 266 264 263 262 260 260 260 259 259 256 255 254 256 255 255 255 255 254 254 254 255 256 255 255 254 253 254 255 256 257
305 304 301 296 291 289 286 285 279 276 272 268 269 269 269 267 263 260 259 259 259 259 259 258 257 256 257 257 257 258 257 256 256 256 256 256 255 255 255 254 254 255 256 257
305 305 302 296 291 288 287 285 281 277 275 272 270 269 269 268 265 262 260 260 261 261 261 260 259 256 258 258 260 260 259 258 258 258 257 257 256 255 255 255 255 256 257 257
304 303 300 295 291 288 288 285 281 280 276 273 271 271 271 270 268 265 262 262 263 263 262 261 261 259 258 259 262 263 261 260 258 257 258 258 257 256 256 257 257 258 258 258
300 299 296 293 289 286 285 284 282 280 278 274 272 272 272 270 269 267 264 263 265 264 262 261 261 261 260 261 263 265 264 262 261 259 259 258 258 258 258 259 260 260 260 260
300 297 294 292 287 284 283 281 280 279 278 277 276 276 274 273 271 269 265 264 265 265 262 261 261 262 262 262 264 265 265 265 263 261 260 260 260 260 260 261 261 261 262 261
299 298 296 292 288 285 282 279 279 279 279 279 279 280 279 276 273 271 268 267 266 265 263 261 260 262 262 262 264 265 265 265 263 262 262 262 261 259 260 261 263 262 262 260
298 296 295 293 290 288 282 278 278 278 279 280 280 281 281 278 275 271 269 267 267 266 265 263 262 262 262 261 263 264 265 265 264 263 263 263 263 261 261 262 262 261 260 259
Height
5650 5650 5649 5649 5649 5650 5650 5652 5654 5656 5658 5661 5663 5666 5669 5672 5676 5681 5686 5692 5697 5703 5708 5713 5718 5723 5727 5731 5735 5739 5741 5745 5748 5751 5754 5757 5759 5762 5764 5766 5768 5771 5773 5775
5646 5645 5645 5644 5644 5645 5645 5646 5648 5650 5653 5655 5657 5660 5663 5666 5669 5674 5678 5684 5689 5694 5699 5704 5709 5714 5718 5722 5725 5728 5732 5735 5739 5741 5744 5746 5749 5752 5754 5757 5759 5762 5764 5766
5641 5642 5640 5640 5640 5640 5641 5643 5644 5646 5648 5650 5652 5655 5658 5660 5663 5666 5671 5675 5680 5686 5690 5695 5700 5705 5709 5713 5716 5719 5722 5726 5729 5732 5734 5737 5740 5742 5744 5747 5750 5752 5755 5757
5637 5637 5636 5636 5636 5637 5638 5639 5640 5642 5643 5644 5647 5649 5653 5655 5657 5660 5664 5668 5672 5677 5681 5686 5691 5696 5700 5704 5707 5710 5714 5717 5719 5722 5724 5727 5730 5733 5735 5737 5740 5743 5745 5747
5634 5633 5633 5633 5633 5634 5634 5635 5637 5638 5639 5640 5642 5644 5648 5649 5652 5655 5657 5661 5665 5669 5673 5677 5682 5686 5691 5694 5698 5701 5704 5707 5710 5713 5715 5717 5720 5723 5725 5727 5730 5732 5735 5737
5631 5630 5630 5630 5630 5630 5631 5632 5633 5634 5635 5636 5638 5639 5642 5644 5647 5649 5652 5655 5658 5661 5665 5669 5673 5677 5681 5685 5689 5691 5695 5698 5701 5703 5705 5707 5710 5712 5715 5717 5720 5722 5725 5727
5628 5627 5627 5627 5627 5627 5628 5629 5630 5630 5630 5632 5634 5634 5637 5639 5642 5643 5646 5648 5650 5653 5656 5660 5664 5668 5672 5676 5679 5682 5686 5689 5691 5693 5695 5698 5700 5702 5705 5708 5710 5712 5715 5718
5626 5625 5624 5623 5624 5624 5625 5626 5627 5627 5627 5628 5629 5630 5633 5634 5636 5637 5638 5640 5642 5645 5648 5651 5655 5659 5663 5667 5670 5673 5676 5679 5682 5684 5686 5688 5690 5692 5695 5698 5700 5703 5705 5708
5623 5623 5622 5621 5621 5621 5621 5622 5623 5624 5623 5624 5624 5625 5627 5628 5629 5631 5632 5633 5635 5637 5640 5643 5646 5650 5654 5657 5661 5664 5666 5669 5672 5674 5676 5678 5681 5683 5686 5688 5691 5694 5696 5698
5620 5619 5619 5618 5618 5618 5619 5619 5620 5620 5619 5619 5620 5621 5621 5622 5623 5625 5626 5627 5628 5630 5632 5635 5638 5642 5645 5648 5651 5654 5656 5659 5662 5664 5666 5669 5671 5673 5676 5679 5682 5684 5686 5689
5617 5616 5616 5615 5615 5615 5615 5615 5615 5615 5615 5615 5615 5618 5616 5617 5618 5619 5620 5620 5622 5623 5625 5627 5630 5633 5636 5639 5642 5644 5647 5649 5652 5654 5657 5659 5661 5664 5667 5669 5672 5675 5677 5679
5614 5613 5612 5612 5611 5611 5611 5611 5612 5612 5611 5610 5610 5615 5611 5612 5612 5613 5613 5614 5615 5617 5618 5620 5623 5626 5629 5631 5633 5636 5638 5640 5642 5645 5647 5650 5652 5655 5657 5660 5662 5665 5668 5670
5612 5610 5609 5608 5609 5608 5606 5606 5606 5607 5606 5606 5606 5610 5606 5606 5607 5607 5608 5608 5609 5610 5612 5614 5616 5618 5621 5623 5625 5627 5628 5630 5633 5635 5638 5641 5643 5646 5648 5651 5653 5656 5658 5660
5608 5607 5606 5605 5603 5602 5602 5602 5601 5601 5601 5601 5602 5603 5602 5601 5602 5602 5602 5603 5604 5604 5605 5607 5609 5611 5613 5615 5617 5619 5620 5622 5624 5626 5629 5631 5634 5636 5639 5641 5643 5646 5648 5651
5604 5603 5601 5600 5599 5598 5597 5597 5596 5596 5596 5596 5597 5597 5597 5596 5596 5596 5596 5597 5598 5599 5600 5601 5602 5604 5606 5607 5609 5610 5612 5613 5615 5618 5620 5623 5625 5627 5629 5632 5634 5636 5638 5641
5600 5599 5597 5596 5594 5593 5593 5592 5591 5591 5590 5590 5591 5592 5591 5591 5590 5590 5590 5591 5592 5593 5593 5594 5595 5597 5598 5600 5601 5602 5603 5605 5607 5609 5611 5613 5615 5618 5620 5622 5624 5626 5629 5631
5596 5594 5592 5591 5590 5588 5588 5587 5586 5586 5585 5585 5585 5586 5585 5585 5585 5585 5585 5585 5586 5586 5587 5588 5589 5590 5591 5592 5593 5594 5595 5596 5598 5600 5602 5604 5606 5608 5610 5613 5615 5617 5619 5621
5592 5589 5587 5586 5585 5584 5585 5582 5580 5580 5580 5579 5579 5579 5579 5579 5579 5579 5579 5579 5580 5580 5580 5581 5582 5583 5583 5584 5585 5586 5587 5588 5590 5591 5593 5595 5597 5598 5600 5603 5605 5607 5609 5611
5587 5584 5582 5580 5579 5578 5579 5576 5575 5574 5574 5574 5573 5572 5572 5572 5573 5573 5572 5573 5573 5573 5574 5574 5575 5575 5576 5577 5578 5579 5579 5580 5581 5583 5584 5586 5587 5589 5591 5593 5595 5597 5599 5601
5581 5579 5577 5575 5573 5572 5574 5571 5568 5569 5569 5568 5567 5566 5566 5565 5566 5567 5566 5566 5566 5566 5567 5567 5568 5568 5569 5570 5571 5572 5572 5573 5574 5575 5576 5577 5578 5580 5582 5583 5585 5587 5589 5591
5577 5574 5572 5569 5567 5567 5567 5565 5564 5564 5564 5562 5561 5560 5560 5559 5560 5560 5559 5559 5559 5560 5560 5560 5561 5562 5562 5563 5564 5564 5565 5565 5566 5566 5567 5568 5569 5571 5572 5574 5576 5577 5579 5581
5571 5569 5566 5564 5562 5564 5560 5559 5558 5558 5557 5555 5555 5554 5554 5553 5553 5553 5553 5552 5553 5553 5553 5554 5554 5555 5555 5556 5557 5557 5557 5557 5558 5558 5559 5560 5561 5562 5563 5564 5566 5567 5569 5570
5566 5564 5560 5559 5559 5556 5554 5553 5552 5551 5550 5549 5549 5548 5547 5547 5546 5546 5546 5546 5546 5546 5546 5547 5547 5547 5548 5548 5549 5549 5549 5550 5550 5550 5551 5551 5552 5553 5554 5555 5556 5557 5558 5560
5560 5557 5554 5553 5552 5550 5548 5546 5546 5545 5544 5543 5542 5542 5541 5540 5540 5539 5539 5539 5539 5539 5539 5539 5540 5540 5541 5541 5542 5542 5542 5542 5542 5542 5543 5543 5544 5545 5545 5546 5547 5548 5549 5550
5554 5550 5548 5546 5545 5543 5542 5540 5539 5538 5537 5537 5536 5535 5534 5533 5533 5532 5532 5532 5532 5532 5532 5532 5532 5532 5533 5533 5534 5534 5534 5534 5534 5534 5535 5535 5536 5536 5537 5537 5538 5539 5540 5541
5547 5544 5541 5540 5538 5536 5535 5533 5532 5532 5531 5530 5529 5528 5527 5527 5526 5525 5525 5525 5524 5524 5524 5524 5524 5524 5524 5525 5525 5525 5526 5526 5526 5526 5527 5527 5527 5527 5528 5529 5530 5530 5531 5532